Home > Weather > Saipan > Past weeks

Flag for Northern Mariana Islands Weather for the Past 2 Weeks in Saipan, Northern Mariana Islands

Now
79 °F

Partly cloudy.


Feels Like: 83 °F
Forecast: 75 / 84 °F
Wind: 21 mph from East

Location: Saipan International Airport

Current Time: May 6, 2016 at 11:31:39 PM

Latest Report: May 6, 2016 at 10:54 PM


Visibility: 10 mi

Pressure: 30.02 "Hg

Humidity: 84%

Dew Point: 74 °F

Location of SaipanLocation

Historic Weather in Saipan — Graph

°F

Saipan Temperature Yesterday

Maximum temperature yesterday: 90 °F (at 1:54 PM)
Minimum temperature yesterday: 77 °F (at 12:54 AM)
Average temperature yesterday: 82 °F

High & Low Weather Summary for the Past Weeks

 TemperatureHumidityPressure
High90 °F (Apr 30, 2:54 PM)100% (Apr 25, 8:00 AM)30.06 "Hg (Apr 25, 8:00 AM)
Low72 °F (Apr 25, 8:00 AM)60% (Apr 27, 9:54 AM)29.86 "Hg (Apr 23, 3:46 PM)
Average81 °F79%29.98 "Hg
* Reported Apr 21 9:54 PM — May 6 9:54 PM, Saipan, Weather by CustomWeather, © 2016

Note: Actual official high and low records may vary slightly from our data, if they occured in-between our weather recording intervals... More about our weather records

Advertising

Saipan Weather History for the Previous 24 Hours

Scroll right to see more
 ConditionsComfort  
Time TempWeatherWind HumidityBarometerVisibility
9:54 PM
Fri, May 6
80 °FPartly cloudy.20 mph79%30.02 "Hg10 mi
9:21 PM81 °FPassing clouds.14 mph84%29.95 "Hg10 mi
8:54 PM80 °FPartly cloudy.16 mph79%30.01 "Hg10 mi
7:54 PM80 °FPartly cloudy.15 mph79%30.00 "Hg10 mi
6:54 PM80 °FPartly cloudy.21 mph76%29.99 "Hg10 mi
5:54 PM81 °FBroken clouds.21 mph72%29.96 "Hg10 mi
5:46 PM81 °FMostly cloudy.20 mph74%29.90 "Hg10 mi
4:54 PM86 °FBroken clouds.20 mph66%29.95 "Hg10 mi
3:54 PM86 °FBroken clouds.21 mph66%29.95 "Hg10 mi
2:54 PM86 °FBroken clouds.22 mph66%29.96 "Hg10 mi
1:54 PM86 °FBroken clouds.22 mph70%29.97 "Hg10 mi
12:54 PM86 °FBroken clouds.21 mph70%30.00 "Hg10 mi
11:54 AM86 °FScattered clouds.21 mph70%30.02 "Hg10 mi
10:54 AM85 °FScattered clouds.21 mph70%30.03 "Hg10 mi
9:54 AM84 °FScattered clouds.21 mph74%30.04 "Hg10 mi
8:54 AM82 °FScattered clouds.17 mph77%30.05 "Hg10 mi
7:54 AM83 °FScattered clouds.20 mph75%30.04 "Hg10 mi
6:54 AM80 °FMore clouds than sun.18 mph81%30.02 "Hg10 mi
5:54 AM78 °FBroken clouds.15 mph87%30.01 "Hg10 mi
4:54 AM79 °FOvercast.15 mph88%29.99 "Hg10 mi
3:54 AM78 °FPartly cloudy.13 mph90%29.98 "Hg10 mi
2:54 AM78 °FPartly cloudy.13 mph90%29.99 "Hg10 mi
1:54 AM79 °FPartly cloudy.14 mph88%30.00 "Hg10 mi
12:54 AM77 °FPartly cloudy.13 mph96%30.01 "Hg10 mi
12:35 AM77 °FLight rain. Mostly cloudy.12 mph94%29.96 "Hg10 mi
11:54 PM
Thu, May 5
77 °FPartly cloudy.12 mph96%30.03 "Hg10 mi
Weather by CustomWeather, © 2016

See weather overviewHow to use our weather pages